www.pogodaiklimat.ru

Погода и климат >> Архив погоды >> Финляндия >> Вихти


ПОГОДА в Вихти

  • Прогноз погоды в Вихти
  • Монитор погоды в Вихти

АРХИВ ПОГОДЫ в Вихти

Время (UTC), дата Ветер
(напр.,м/с)
 
Видим.   Явления Облачность Т
(С)
Тd
(С)
f
(%)
Тe
(С)
Тes
(С)
Комфортность P
(гПа)
Po
(гПа)
Тmin
(С)
Tmax
(С)
R
(мм)
R24
(мм)
S
(см)
13 18.08 ЮВ 5-8
{10}
н/о н/о +22.0 +10.9 49 +24 +24 комфорт 1010.7 1005.8
14 18.08 ЮВ 4-7
{10}
н/о н/о +21.8 +11.0 50 +24 +24 комфорт 1010.4 1005.5
15 18.08 ЮВ 4-7
{8}
н/о н/о +21.6 +11.1 51 +23 +23 комфорт 1010.0 1005.1
16 18.08 ЮВ 4 н/о н/о +20.4 +10.7 54 +22 +22 комфорт 1010.0 1005.0
17 18.08 ЮВ 4 н/о н/о +19.4 +10.3 56 +20 +20 1010.0 1005.0
18 18.08 ЮВ 3-6
{7}
н/о н/о +18.3 +11.0 62 +19 +19 1009.4 1004.5 +18.1 +23.3
19 18.08 ЮВ 2-3
{5}
н/о н/о +18.0 +11.7 67 +19 +19 1009.3 1004.3
20 18.08 ЮВ 2 н/о н/о +17.7 +12.5 72 +18 +18 1008.6 1003.6
21 18.08 ЮВ 2-4
{4}
н/о н/о +17.4 +12.9 75 +18 +18 1008.5 1003.5
22 18.08 ЮВ 2 н/о н/о +17.8 +12.6 72 +18 +18 1008.1 1003.1
23 18.08 ЮВ 3-4
{5}
н/о н/о +18.5 +12.4 68 +19 +19 1007.5 1002.6
00 19.08 ЮВ 1-2
{8}
н/о н/о +15.2 +14.7 97 +16 +16 1007.2 1002.2
01 19.08 ЮВ 2-3
{4}
н/о н/о +15.4 +14.6 95 +15 +15 1006.6 1001.6
02 19.08 ЮВ 2 н/о н/о +15.3 +14.6 96 +15 +15 1006.2 1001.2
03 19.08 ЮВ 3-4
{5}
н/о н/о +15.3 +14.7 96 +15 +15 1005.6 1000.6
04 19.08 ЮВ 3 н/о н/о +15.3 +14.7 96 +15 +15 1005.4 1000.4
05 19.08 ЮВ 3 н/о н/о +15.5 +14.9 96 +15 +15 1005.0 1000.0
06 19.08 ЮВ 5-7
{8}
н/о н/о +15.7 +15.5 99 +14 +14 1004.4 999.5 +15.0 +18.5
07 19.08 ЮВ 4 н/о н/о +16.0 +15.7 98 +15 +15 1004.5 999.6
08 19.08 Ю 5 н/о н/о +16.0 +15.7 98 +15 +15 1004.7 999.8
09 19.08 Ю 4-6
{8}
н/о н/о +16.3 +16.0 98 +16 +16 1005.1 1000.2
10 19.08 Ю 3-5
{5}
н/о н/о +17.9 +17.8 99 +18 +18 1005.5 1000.6
11 19.08 Ю 3 н/о н/о +19.8 +17.4 86 +23 +23 комфорт 1006.0 1001.0
12 19.08 ЮЗ 3-6
{6}
н/о н/о +20.4 +16.0 76 +24 +24 комфорт 1007.3 1002.3
13 19.08 ЮЗ 3 н/о н/о +20.1 +14.8 72 +23 +23 комфорт 1007.7 1002.8
14 19.08 Ю 3 н/о н/о +20.2 +15.1 72 +23 +23 комфорт 1008.5 1003.6
15 19.08 ЮЗ 3-7
{9}
н/о н/о +19.4 +13.3 68 +21 +21 комфорт 1009.5 1004.5
16 19.08 З 3-5
{8}
н/о н/о +18.9 +13.5 71 +20 +20 1009.8 1004.9
17 19.08 ЮЗ 2 н/о н/о +17.6 +12.2 71 +18 +18 1010.8 1005.8
18 19.08 Ю 1-3
{5}
н/о н/о +15.7 +12.4 81 +16 +16 1011.4 1006.4 +15.7 +21.0
19 19.08 ЮВ 1 н/о н/о +13.7 +12.2 91 +14 +14 1011.7 1006.7
20 19.08 Ю 1-2
{3}
н/о н/о +13.9 +13.0 94 +14 +14 1012.3 1007.2
21 19.08 ЮВ 1-2
{3}
н/о н/о +12.9 +12.6 98 +13 +13 1013.0 1007.9
22 19.08 Ю 1 н/о н/о +11.7 +11.5 99 +11 +11 1013.1 1008.1
23 19.08 штиль 0 н/о н/о +10.6 +10.6 100 +10 +10 1013.3 1008.2
00 20.08 штиль 0-1
{1}
н/о н/о +11.1 +12 +12 1013.4 1008.3
01 20.08 штиль 0
{2}
н/о н/о +10.7 +11 +11 1013.8 1008.7
02 20.08 штиль 0 н/о н/о +10.4 1014.3 1009.2
03 20.08 Ю 3-4
{4}
н/о н/о +13.9 +13 +13 1014.6 1009.5
04 20.08 Ю 2 н/о н/о +14.3 1014.9 1009.8
05 20.08 Ю 2-4
{4}
н/о н/о +15.5 +16 +16 1015.0 1010.0
06 20.08 Ю 3-4
{5}
н/о н/о +17.5 +16.4 93 +17 +17 1015.3 1010.3 +9.7 +17.5
07 20.08 Ю 4 н/о н/о +18.7 +15.3 81 +20 +20 1015.5 1010.5
08 20.08 Ю 3 н/о н/о +18.9 +14.2 74 +20 +20 1015.8 1010.8
09 20.08 ЮЗ 3-7
{7}
н/о н/о +20.2 +13.1 64 +23 +23 комфорт 1015.9 1010.9
10 20.08 Ю 3 н/о н/о +21.5 +13.1 59 +24 +24 комфорт 1016.2 1011.2
11 20.08 Ю 4 н/о н/о +21.6 +12.6 57 +24 +24 комфорт 1016.4 1011.5
12 20.08 ЮЗ 3-8
{9}
н/о н/о +21.5 +11.1 52 +23 +23 комфорт 1016.8 1011.8
13 20.08 ЮЗ 4-7
{7}
н/о н/о +21.6 +10.9 51 +23 +23 комфорт 1017.1 1012.1
14 20.08 Ю 4-6
{9}
н/о н/о +21.0 +11.4 54 +23 +23 комфорт 1017.5 1012.5
15 20.08 ЮЗ 4-8
{8}
н/о н/о +20.3 +11.3 56 +22 +22 комфорт 1018.0 1013.0
16 20.08 Ю 3 н/о н/о +19.3 +11.3 60 +21 +21 комфорт 1018.2 1013.3
17 20.08 Ю 2 н/о н/о +18.3 +12.1 67 +19 +19 1018.6 1013.6
18 20.08 ЮВ 1-4
{7}
н/о н/о +16.4 +13.3 82 +17 +17 1019.1 1014.1 +16.4 +22.2
19 20.08 Ю 2 н/о н/о +14.3 +12.9 91 +14 +14 1019.4 1014.3
20 20.08 Ю 2 н/о н/о +13.0 +12.6 97 +12 +12 1019.6 1014.5
21 20.08 Ю 1-2
{2}
н/о н/о +12.8 +12.8 100 +13 +13 1020.0 1014.8
22 20.08 ЮЗ 1 н/о н/о +13.3 1020.1 1015.0
23 20.08 штиль 0 н/о н/о +12.6 1020.3 1015.2
00 21.08 Ю 2-4
{4}
н/о н/о +11.9 +12 +12 1020.6 1015.5
01 21.08 штиль 0 н/о н/о +12.2 1020.8 1015.7
02 21.08 штиль 0-2
{2}
н/о н/о +11.5 +12 +12 1020.9 1015.8
03 21.08 штиль 0
{2}
н/о н/о +11.5 +12 +12 1020.9 1015.7
04 21.08 Ю 2-3
{3}
н/о н/о +13.4 +14 +14 1021.1 1016.0
05 21.08 Ю 1 н/о н/о +15.0 1020.9 1015.8
06 21.08 Ю 2-4
{4}
н/о н/о +16.7 +16.1 96 +17 +17 1021.0 1015.9 +10.3 +16.7
07 21.08 Ю 4 н/о н/о +18.6 +15.2 81 +19 +19 1021.0 1016.0
08 21.08 ЮЗ 3-6
{8}
н/о н/о +18.9 +14.0 73 +20 +20 1020.8 1015.8
09 21.08 штиль 0-2
{6}
н/о н/о +16.4 +15.4 94 +16 +16 1021.0 1015.9
10 21.08 Ю 2 н/о н/о +18.8 +16.5 86 +21 +21 комфорт 1020.7 1015.7
11 21.08 Ю 3 н/о н/о +19.9 +15.1 74 +22 +22 комфорт 1020.1 1015.1
12 21.08 Ю 3-5
{6}
н/о н/о +19.9 +15.3 75 +22 +22 комфорт 1019.8 1014.8
13 21.08 СЗ 3-3
{6}
н/о н/о +17.8 +12.5 71 +18 +18 1019.8 1014.8
14 21.08 СЗ 1-4
{4}
н/о н/о +17.0 +14.1 83 +18 +18 1019.7 1014.7
15 21.08 С 2-3
{5}
н/о н/о +16.5 +15.8 96 +17 +17 1019.6 1014.5
16 21.08 ЮВ 2 н/о н/о +17.2 +15.6 90 +18 +18 1019.3 1014.3
17 21.08 Ю 2 н/о н/о +16.4 +15.6 95 +16 +16 1019.3 1014.3
18 21.08 штиль 0-2
{3}
н/о н/о +14.7 +14.7 100 +14 +14 1019.4 1014.4 +14.5 +20.3
19 21.08 штиль 0 н/о н/о +13.1 +13.1 100 +12 +12 1019.8 1014.8
20 21.08 Ю 1 н/о н/о +12.0 1019.9 1014.8
21 21.08 штиль 0-1
{2}
н/о н/о +9.4 +10 +10 1020.3 1015.2
22 21.08 штиль 0 н/о н/о +9.5 1020.3 1015.2
23 21.08 Ю 1-2
{2}
н/о н/о +8.3 +9 +9 1020.2 1015.0
00 22.08 штиль 0-1
{2}
н/о н/о +7.1 +8 +8 1020.4 1015.2
01 22.08 штиль 0
{2}
н/о н/о +6.2 +7 +7 1020.7 1015.5
02 22.08 штиль 0 н/о н/о +6.3 1020.8 1015.5
03 22.08 штиль 0
{2}
н/о н/о +6.5 +7 +7 1021.0 1015.7
04 22.08 штиль 0
{1}
н/о н/о +8.4 +9 +9 1021.1 1015.9
05 22.08 штиль 0 н/о н/о +10.6 +12 +12 1021.3 1016.1
06 22.08 СЗ 2-3
{3}
н/о н/о +14.2 +14 +14 1021.3 1016.2 +5.7 +14.7
07 22.08 СЗ 2 н/о н/о +16.0 +15.3 96 +16 +16 1021.4 1016.3
08 22.08 З 2 н/о н/о +17.6 +13.5 77 +18 +18 1021.5 1016.5
09 22.08 ЮЗ 3-5
{6}
н/о н/о +19.2 +12.2 64 +21 +21 комфорт 1021.8 1016.8
10 22.08 ЮЗ 3-6
{8}
н/о н/о +19.5 +11.0 58 +21 +21 комфорт 1021.9 1016.9
11 22.08 СЗ 5 н/о н/о +20.6 +10.5 52 +22 +22 комфорт 1021.9 1017.0
12 22.08 СЗ 2-7
{8}
н/о н/о +21.1 +9.9 49 +23 +23 комфорт 1022.1 1017.1
13 22.08 ЮЗ 3 н/о н/о +20.8 +9.2 47 +23 +23 комфорт 1022.2 1017.2
14 22.08 З 2-5
{8}
н/о н/о +21.3 +8.4 44 +22 +22 комфорт 1022.4 1017.4
15 22.08 З 3-6
{6}
н/о н/о +20.9 +8.4 45 +23 +23 комфорт 1022.4 1017.5
16 22.08 З 3 н/о н/о +20.3 +9.5 50 +22 +22 комфорт 1022.5 1017.5
17 22.08 ЮЗ 2 н/о н/о +18.4 +12.2 67 +19 +19 1022.8 1017.8
18 22.08 Ю 2-4
{5}
н/о н/о +16.5 +11.2 71 +17 +17 1023.2 1018.2 +14.2 +21.7
19 22.08 Ю 2-5
{7}
н/о н/о +14.7 +11.4 81 +14 +14 1023.5 1018.5
20 22.08 Ю 1 н/о н/о +12.6 +11.1 91 +13 +13 1023.9 1018.7
21 22.08 ЮВ 1-2
{2}
н/о н/о +11.2 +10.5 95 +11 +11 1024.0 1018.8
22 22.08 Ю 1 н/о н/о +11.1 +10.6 97 +11 +11 1023.8 1018.6
23 22.08 Ю 1 н/о н/о +11.4 +11.0 97 +11 +11 1023.4 1018.2
00 23.08 штиль 0-1
{1}
н/о н/о +11.9 +11.9 100 +11 +11 1023.0 1017.9
01 23.08 ЮВ 1-2
{2}
н/о н/о +12.8 +12.8 100 +13 +13 1023.0 1017.9
02 23.08 штиль 0 н/о н/о +13.4 +12.8 96 +13 +13 1023.1 1018.0
03 23.08 Ю 1-2
{3}
н/о н/о +12.6 +12.6 100 +12 +12 1022.7 1017.6
04 23.08 Ю 1 н/о н/о +12.6 +12.6 100 +12 +12 1022.7 1017.6
05 23.08 Ю 2 н/о н/о +12.7 +12.7 100 +12 +12 1022.0 1016.9
06 23.08 ЮВ 3-4
{4}
н/о н/о +13.3 +13.1 99 +12 +12 1021.3 1016.2 +10.9 +16.5
07 23.08 ЮВ 4 н/о н/о +14.4 +14.0 97 +13 +13 1021.2 1016.2
08 23.08 ЮВ 3 н/о н/о +16.2 +15.6 96 +16 +16 1020.3 1015.3
09 23.08 Ю 3-6
{8}
н/о н/о +18.1 +15.8 86 +18 +18 1020.0 1015.0
10 23.08 Ю 3-7
{7}
н/о н/о +19.2 +14.7 75 +21 +21 комфорт 1019.9 1014.9
11 23.08 ЮЗ 3 н/о н/о +19.9 +13.9 68 +22 +22 комфорт 1019.7 1014.7
12 23.08 ЮЗ 3-6
{8}
н/о н/о +19.8 +13.0 65 +22 +22 комфорт 1019.1 1014.2
13 23.08 ЮЗ 2 н/о н/о +18.1 +13.7 75 +19 +19 1018.8 1013.8
14 23.08 Ю 3 н/о н/о +15.6 +13.8 89 +15 +15 1018.0 1012.9
15 23.08 ЮЗ 1-3
{7}
н/о н/о +14.9 +14.2 96 +15 +15 1017.6 1012.5
16 23.08 Ю 3 н/о н/о +15.0 +14.4 96 +14 +14 1016.6 1011.6
17 23.08 Ю 2-4
{5}
н/о н/о +15.0 +14.5 97 +15 +15 1016.0 1010.9
18 23.08 Ю 1-3
{5}
н/о н/о +15.2 +14.9 98 +16 +16 1015.6 1010.6 +13.3 +20.4
19 23.08 Ю 1 н/о н/о +15.4 +14.8 96 +16 +16 1015.6 1010.6
20 23.08 СЗ 2-2
{4}
н/о н/о +15.5 +15.0 97 +15 +15 1016.0 1011.0
21 23.08 штиль 0-2
{4}
н/о н/о +14.3 +14.1 99 +14 +14 1016.1 1011.1
22 23.08 штиль 0 н/о н/о +14.2 +14.1 99 +14 +14 1016.3 1011.2
23 23.08 ЮЗ 1 н/о н/о +15.0 +14.5 97 +15 +15 1016.6 1011.5
00 24.08 Ю 1-3
{3}
н/о н/о +14.1 +13.9 99 +14 +14 1017.1 1012.0
01 24.08 З 1-2
{4}
н/о н/о +13.9 +13.7 99 +14 +14 1017.4 1012.3
02 24.08 Ю 1-2
{3}
н/о н/о +13.8 +13.5 98 +14 +14 1017.9 1012.9
03 24.08 З 2-4
{4}
н/о н/о +14.1 +13.7 97 +13 +13 1018.5 1013.5
04 24.08 СЗ 2 н/о н/о +14.2 +13.7 97 +14 +14 1019.1 1014.0
05 24.08 З 1 н/о н/о +14.3 +13.5 95 +15 +15 1019.6 1014.5
06 24.08 СЗ 3-5
{5}
н/о н/о +15.4 +13.6 89 +15 +15 1020.1 1015.1 +13.6 +15.6
07 24.08 СЗ 4 н/о н/о +16.6 +13.4 81 +16 +16 1020.6 1015.5
08 24.08 СЗ 6-9
{9}
н/о н/о +17.6 +12.7 73 +17 +17 1021.2 1016.2
09 24.08 СЗ 6-9
{10}
н/о н/о +18.7 +12.1 65 +19 +19 1022.0 1016.9
10 24.08 СЗ 5 н/о н/о +19.4 +11.0 58 +20 +20 1022.3 1017.3
11 24.08 СЗ 6-9
{10}
н/о н/о +19.7 +10.4 55 +21 +21 комфорт 1022.6 1017.6
12 24.08 СЗ 6-10
{10}
н/о н/о +20.2 +9.7 51 +21 +21 комфорт 1023.2 1018.2
13 24.08 СЗ 5-9
{11}
н/о н/о +19.9 +10.0 53 +21 +21 комфорт 1023.7 1018.7
14 24.08 СЗ 4 н/о н/о +20.1 +9.7 51 +21 +21 комфорт 1024.1 1019.1
15 24.08 СЗ 3-6
{9}
н/о н/о +20.8 +9.7 49 +23 +23 комфорт 1024.1 1019.1
16 24.08 СЗ 3 н/о н/о +19.8 +10.1 54 +21 +21 комфорт 1024.5 1019.5
17 24.08 СЗ 1-3
{5}
н/о н/о +16.9 +10.5 66 +18 +18 1024.9 1019.8
18 24.08 ЮВ 1-2
{2}
н/о н/о +13.2 +11.1 87 +13 +13 1025.5 1020.3 +13.2 +21.4
19 24.08 Ю 1 н/о н/о +11.7 +10.8 94 +11 +11 1025.9 1020.8
20 24.08 штиль 0
{1}
н/о н/о +10.2 +10.1 99 +9 +9 1026.4 1021.2
21 24.08 Ю 1-1
{1}
н/о н/о +8.4 +8.2 99 +7 +7 1026.6 1021.4
22 24.08 Ю 1-2
{2}
н/о н/о +8.6 +8.6 100 +8 +8 1026.8 1021.6
23 24.08 Ю 1 н/о н/о +7.1 +7.1 100 +6 +6 1027.2 1022.0
00 25.08 Ю 1-1
{2}
н/о н/о +6.4 +7 +7 1027.7 1022.5
01 25.08 штиль 0 н/о н/о +5.1 1027.9 1022.6
02 25.08 штиль 0-1
{1}
н/о н/о +5.1 +6 +6 1028.1 1022.8
03 25.08 штиль 0-1
{1}
н/о н/о +4.8 +5 +5 1028.3 1023.0
04 25.08 штиль 0 н/о н/о +5.0 1028.5 1023.2
05 25.08 штиль 0 н/о н/о +7.3 1028.5 1023.2
06 25.08 С 2-2
{2}
н/о н/о +11.6 1028.7 1023.5 +4.5 +13.2
07 25.08 СВ 2 н/о н/о +15.8 +13.5 86 +16 +16 1028.5 1023.4
08 25.08 З 2-4
{4}
н/о н/о +18.1 +11.7 66 +19 +19 1028.1 1023.0
09 25.08 З 2-4
{4}
н/о н/о +19.8 +11.7 60 +22 +22 комфорт 1027.8 1022.8
10 25.08 ЮЗ 3 н/о н/о +20.9 +11.0 53 +23 +23 комфорт 1027.7 1022.7
11 25.08 Ю 3 н/о н/о +21.0 +9.8 49 +23 +23 комфорт 1027.4 1022.4
12 25.08 З 2-4
{6}
н/о н/о +21.5 +7.5 40 +22 +22 комфорт 1027.2 1022.2
13 25.08 З 2-6
{6}
н/о н/о +22.4 +9.0 42 +24 +24 комфорт 1026.6 1021.6

 

Местоположение метеостанции Вихти (Финляндия): широта 60.42 долгота 24.40 высота над уровнем моря 42 м.

В архиве по умолчанию представлена погода в Вихти за последнюю неделю. Архивные данные за месяц целиком и за предыдущие месяцы, начиная с января 2011 года, Вы можете получить, выбрав интересующий диапазон дат из раскрывающегося списка и нажав кнопку "Ввод!".


*Определитесь, кто Вы:
робот инопланетянин человек

Внимание! Время в таблицах - всемирное. Для получения местного времени необходимо прибавить поправку, которая равна 1 ч.

Смотрите также архив погоды в соседних городах и на ближайших метеорологических станциях:

Погода в Нурмиярви (Финляндия) (17 км)
Погода в Эспо Нууксио (Финляндия) (17 км)
Погода в Лохья Порла (Финляндия) (28 км)
Погода в Хювинкяа (Финляндия) (30 км)
Погода в Хельсинки (Финляндия) (32 км)
Погода в Эспо Тапиола (Финляндия) (34 км)
Погода в Хельсинки университете (Финляндия) (39 км)
Погода в Хельсинки Кайсаниеми (Финляндия) (40 км)
Погода в Сомеро Салкола (Финляндия) (41 км)
Погода в Аэропорту Сало Киикала (Финляндия) (41 км)

Пояснения к столбцам:

Ветер - указаны скорость ветра в м/с - средняя за 10 мин, порывы в срок и между сроками (в фигурных скобках) и направление, откуда дует ветер: С - северный, СВ - северо-восточный, В - восточный, ЮВ - юго-восточный, Ю - южный, ЮЗ - юго-западный, З - западный, СЗ - северо-западный.
Видимость - горизонтальная дальность видимости в метрах или километрах. При видимости от 1 до 10 км при отсутствии осадков обычно наблюдается дымка, при ухудшении видимости до 1 км и менее - туман. В сухую погоду видимость может ухудшаться дымом, пылью или мглою.
Явления - указаны атмосферные явления, наблюдавшиеся в срок или в последний час перед сроком; фигурными скобками обозначены явления, наблюдавшиеся между сроками (за 1-3 часа до срока); квадратными скобками обозначены град или гололедные отложения с указанием их диаметра в мм.
Облачность - указаны через наклонную черту общая и нижняя облачность в баллах и высота нижней границы облаков в метрах; квадратными скобками обозначены формы облаков: Ci - перистые, Cs - перисто-слоистые, Cc - перисто-кучевые, Ac - высококучевые, As - высокослоистые, Sc - слоисто-кучевые, Ns - слоисто-дождевые, Cu - кучевые, Cb - кучево-дождевые. Подробнее классификацию облаков см. в Атласе облаков (PDF).
T - Температура воздуха - температура, измеренная на высоте 2 м над землей.
Td - Температура точки росы - температура, при понижении до которой содержащийся в воздухе водяной пар достигнет насыщения.
f - Относительная влажность воздуха - влажноcть воздуха, измеренная на высоте 2 м над землей.
Te - Эффективная температура - температура, которую ощущает одетый по сезону человек в тени. Характеристика душности погоды. При расчете учитывается влияние влажности воздуха и скорости ветра на теплоощущения человека.
Tes - Эффективная температура на солнце - температура, которую ощущает человек, с поправкой на солнечный нагрев. Характеристика знойности погоды. Зависит от высоты солнца над горизонтом, облачности и скорости ветра. Ночью, в пасмурную погоду, а также при ветре 12 м/с и более поправка равна нулю.
P - Атмосферное давление - приведенное к уровню моря атмосферное давление.
Po - Атмосферное давление - измеренное на уровне метеостанции атмосферное давление.
Tmin - Минимальная температура - минимум температуры воздуха на высоте 2 м над землей.
Tmax - Максимальная температура - максимум температуры воздуха на высоте 2 м над землей.
R - Количество осадков - Количество выпавших осадков за период времени, мм. При наведении курсора мыши на число - период времени, за который выпало указанное количество осадков.
R24 - Количество осадков - Количество выпавших осадков за 24 часа, мм.
S - Снежный покров - Высота снежного покрова, см. При наведении курсора мыши на число - состояние снежного покрова и степень покрытия местности в баллах.